User: anonymous   Login
Location: *
(51.1248°S, 108.4023°W)
Time: 00:00:17
(UTC+00:00)
Language:

Cosmos 1656 - Orbit

View from above orbital plane
View from above orbital plane
View from above satellite
View from above satellite

Ground track
Ground track

The orbit data is extracted from the following two-line orbital elements,

1 15755U 85042A   21271.41115099 -.00000051  00000-0 -17821-5 0  9997
2 15755  71.1097 307.5117 0033959 144.5533 215.7860 14.20469962882547
Epoch (UTC): 28 September 2021 09:52:03
Eccentricity: 0.0033959
inclination: 71.1097°
perigee height: 799 km
apogee height: 848 km
right ascension of ascending node: 307.5117°
argument of perigee: 144.5533°
revolutions per day: 14.20469962
mean anomaly at epoch: 215.7860°
orbit number at epoch: 88254

The dashed part of the orbit path shows where the satellite is in the earth's shadow,  

DLR